Zurück zum Katalog

IRIDIUM 174

AktivKommunikationPO
NORAD 56728·PAYLOAD·🇺🇸 United States

Gestartet May 20, 2023 von Vandenberg Space Force Base

Loading…

Nächste Überflüge (nächste 24 Stunden)

TLE

AktuellSource: CelesTrak SupGP

Epoche: Sep 14, 2026, 21:18 UTC

1 56728C 23068U   26257.88784722 -.00000626  00000+0 -99478-4 0  2578
2 56728  86.6103 316.2121 0002743  94.4251 359.3084 14.72258294    18

Verfolge IRIDIUM 174 in Echtzeit mit AllMySat

Download on the App Store